Location: Pescara
(42.4670°N, 14.2170°E)
Time: 17:23:37
(UTC+02:00)

ISS - Pass Details

Date: 16 May 2021
Orbit: 417 x 422 km, 51.6° (Epoch: 18 June)

Event Time Altitude Azimuth Distance (km) Brightness Sun altitude
Rises 22:49:57 0° 266° (W) 2,359 0.4 -21.4°
Reaches altitude 10° 22:52:15 10° 278° (W) 1,499 -0.4 -21.6°
Maximum altitude 22:55:12 28° 340° (NNW) 832 -1.6 -21.9°
Drops below altitude 10° 22:58:10 10° 41° (NE) 1,506 -0.7 -22.2°
Sets 23:00:28 0° 54° (NE) 2,373 0.1 -22.4°
